Wind_Speed
10 10 12 14 15 18 18 18 17 18 19 19 21 22 22 22 20 20 18 18 18 17 17 16 16 16 16 17 17 18 18 20 22 26 27 25 25 26 25 24 19 15 15 16 18 24 27
10 12 13 15 16 17 17 17 17 17 18 17 17 17 19 19 20 18 17 15 15 16 16 16 17 19 19 19 17 17 18 19 19 21 24 25 26 25 22 23 24 20 18 19 23 27 17
9 11 12 14 15 16 18 17 16 16 17 16 16 15 15 17 17 19 16 15 15 14 15 16 15 18 18 20 19 19 18 18 19 19 19 21 24 26 23 23 22 20 21 25 29 21 14
8 10 11 13 14 16 17 16 16 16 17 18 17 17 15 15 15 14 16 16 16 16 15 14 15 17 16 17 18 19 21 21 20 19 19 19 20 22 24 21 20 21 22 25 26 13 22
6 7 8 10 12 16 20 15 14 15 16 17 17 18 18 17 18 16 16 15 15 16 17 16 18 18 18 17 17 20 23 23 22 20 19 19 18 18 19 21 21 21 23 27 11 11 15
5 6 6 7 11 16 19 18 16 16 15 17 18 22 21 18 19 20 21 21 19 17 18 17 18 19 20 19 21 20 22 24 26 24 21 19 17 16 17 19 19 21 24 26 6 7 9
6 5 4 5 10 13 17 17 19 19 18 17 19 20 21 21 19 21 23 22 25 23 23 21 20 22 22 23 25 23 22 23 26 27 27 22 19 16 16 17 17 19 21 23 3 3 3
7 6 2 3 7 11 15 17 17 18 17 18 17 18 21 22 17 20 20 23 25 26 25 22 20 19 21 24 24 24 25 22 22 25 25 24 21 18 18 18 17 16 20 22 2 2 5
9 6 5 1 5 11 16 18 19 19 18 15 13 17 21 21 19 21 21 22 24 25 24 24 21 19 21 21 22 25 25 25 24 23 23 23 22 21 18 20 19 17 17 19 18 10 6
11 8 7 3 0 9 16 19 21 22 19 16 12 15 20 22 18 20 19 23 22 23 25 26 25 23 23 23 23 23 25 26 23 23 22 21 20 20 21 20 19 18 16 17 19 19 14
12 11 9 6 4 7 14 19 23 22 22 17 14 14 18 19 18 18 17 20 22 23 24 24 25 26 25 25 27 28 28 28 27 25 23 23 20 20 19 21 20 19 19 18 17 17 19
13 13 11 9 9 10 13 17 21 22 20 19 16 16 17 19 20 21 21 22 24 23 23 23 22 25 25 25 30 32 32 32 29 27 25 23 22 19 19 20 20 20 19 18 18 18 18
16 15 13 13 12 13 14 17 20 21 21 20 19 19 20 16 20 22 25 25 24 23 21 23 22 24 25 25 29 32 32 32 30 29 26 26 25 24 23 23 22 20 20 19 19 19 16
19 17 16 16 16 16 16 17 20 22 22 22 24 24 22 20 21 25 29 28 26 26 23 26 24 27 26 26 25 30 29 32 30 32 31 26 25 26 24 24 22 23 22 23 19 21 21
21 20 19 19 20 21 21 21 22 23 23 23 24 26 26 26 28 31 34 34 32 29 26 26 27 30 30 30 29 30 30 32 31 32 33 32 24 28 26 25 27 25 24 23 24 22 22
25 24 24 23 23 25 25 26 27 27 26 26 26 25 28 32 31 34 36 36 35 31 27 28 32 34 34 33 31 30 31 33 34 32 31 33 29 27 28 27 28 27 28 27 25 27 24
29 29 28 28 28 29 29 30 30 31 31 31 31 28 30 33 35 37 37 33 33 29 27 31 32 34 35 35 32 31 32 36 37 37 36 36 32 28 31 32 31 29 30 33 32 26 28
32 32 33 33 33 33 33 33 34 35 35 35 35 32 32 34 33 33 33 35 33 31 32 33 34 35 35 35 35 33 35 36 38 39 37 39 38 32 28 31 33 32 34 38 39 32 27
34 35 35 36 36 36 36 37 38 38 38 36 34 34 36 33 33 31 31 34 35 32 30 32 33 32 33 34 35 35 37 40 40 41 41 40 39 40 34 34 35 34 35 36 37 35 31
34 35 36 36 37 37 37 37 37 37 35 34 34 37 36 34 31 32 32 31 33 33 32 32 33 30 33 35 37 36 38 40 40 40 42 45 38 37 38 38 41 34 33 34 36 36 38
37 37 37 37 36 37 37 36 35 35 35 36 38 39 38 37 34 32 31 31 32 34 32 32 32 33 34 35 35 34 37 39 38 38 39 41 41 39 37 40 39 37 33 34 37 36 39
40 40 40 40 40 40 40 39 36 38 39 39 41 40 39 32 34 34 35 31 33 35 34 36 34 34 34 35 35 37 38 40 39 38 39 40 42 42 37 38 39 34 32 36 36 35 35
45 44 44 43 43 43 42 42 42 42 42 42 41 39 35 34 34 32 34 36 34 36 38 36 34 36 37 37 40 41 40 40 39 41 41 40 42 41 40 40 40 36 33 32 32 32 29
49 48 47 46 45 45 45 44 45 46 44 42 40 41 41 36 36 33 37 36 36 39 37 38 38 38 39 41 43 40 40 40 39 40 39 39 39 39 40 41 43 36 33 34 33 29 26
52 52 50 48 47 46 47 47 48 49 47 48 44 41 39 38 36 36 39 37 38 41 41 40 41 43 42 44 45 43 41 38 38 39 39 40 42 43 43 43 43 35 34 36 36 32 29
57 56 55 53 53 52 53 54 53 53 50 50 44 42 42 42 37 40 39 41 43 40 40 39 41 44 43 44 45 45 44 41 42 38 38 39 42 44 41 42 43 41 41 42 43 39 38
64 62 62 62 61 61 60 59 56 53 52 51 44 43 45 43 41 42 44 43 42 40 41 43 44 45 44 45 44 43 44 41 42 40 38 40 43 44 41 43 44 41 44 45 42 43 44
70 68 66 65 64 63 60 59 56 52 48 50 47 45 45 45 44 43 42 45 43 41 43 45 46 47 46 48 45 45 44 43 43 42 43 43 44 44 44 45 45 44 45 42 43 45 46
69 68 64 60 56 56 58 58 56 54 49 51 47 42 47 47 48 48 49 45 49 45 46 46 48 49 48 47 47 50 44 49 49 48 45 43 46 48 47 46 44 43 42 43 44 47 48
Wind_Direction
56 54 47 43 40 35 29 26 28 30 31 30 30 29 29 33 35 36 34 35 33 34 34 31 27 22 16 14 12 14 9 10 11 18 20 17 19 17 10 7 10 357 336 328 330 333 322
52 49 47 42 36 28 21 18 18 18 20 20 20 27 23 21 20 26 30 25 25 25 21 18 18 14 10 6 3 1 2 2 7 15 18 17 11 16 13 8 6 2 345 338 339 338 353
49 46 38 34 26 23 20 16 11 12 9 6 5 7 9 11 13 14 11 15 10 10 10 13 23 24 21 14 9 358 1 358 1 6 9 14 13 12 23 15 0 352 343 345 344 350 32
34 28 26 24 25 16 11 17 18 9 4 9 10 9 0 356 353 356 3 359 0 359 351 352 1 9 9 15 15 6 1 357 356 358 358 1 12 13 8 10 1 350 347 347 350 60 50
12 12 20 26 22 19 16 11 12 16 15 6 10 15 8 8 3 350 343 349 349 341 345 334 339 346 349 354 1 3 2 360 357 355 353 353 359 7 6 6 9 354 351 352 24 72 60
344 357 12 18 27 28 24 31 24 20 20 15 13 8 14 13 5 6 4 354 341 338 336 322 321 327 332 338 344 350 357 358 355 352 349 349 344 349 3 6 358 0 356 357 104 84 57
322 336 357 19 19 23 21 21 24 21 16 14 16 14 24 21 16 9 10 6 4 354 351 344 331 329 331 335 335 336 345 350 348 350 347 349 344 343 353 1 359 0 357 6 155 69 32
300 306 279 1 28 20 22 22 15 15 13 15 18 28 21 17 14 13 9 14 13 9 3 2 353 350 341 339 340 337 334 335 338 342 346 344 343 342 343 352 349 350 359 9 345 254 313
280 273 229 318 40 30 22 16 12 7 10 12 25 19 18 11 10 8 11 5 2 7 11 7 6 358 353 350 349 342 337 330 328 332 338 339 341 343 340 341 342 339 344 356 358 307 291
266 245 216 211 333 17 11 10 7 2 1 8 4 3 7 1 2 2 358 358 357 0 7 10 8 3 1 358 354 352 344 335 329 328 329 334 337 341 338 333 336 331 326 339 347 354 312
255 224 219 234 262 341 357 359 0 359 355 4 4 4 4 3 358 355 354 355 352 353 2 2 6 5 8 3 359 353 348 342 338 331 327 325 329 334 339 329 326 327 324 323 331 338 346
240 211 227 244 272 302 333 346 355 356 353 353 359 358 356 352 0 0 354 348 345 345 352 353 357 358 354 358 358 353 349 348 346 338 328 322 318 320 324 326 322 319 318 316 319 319 321
220 219 234 250 273 294 309 328 340 348 346 340 341 341 343 341 345 346 346 345 341 337 336 345 344 350 347 342 350 350 346 346 345 338 334 324 315 310 311 317 320 313 312 305 308 306 310
222 231 243 254 269 288 298 310 323 332 341 338 328 329 329 333 334 339 341 338 336 333 327 333 336 340 341 338 334 340 339 341 344 341 338 331 316 306 302 303 310 311 307 306 299 302 299
235 242 251 260 269 278 292 299 308 317 327 332 330 322 321 324 327 331 331 329 328 327 323 326 328 333 333 335 332 337 338 339 340 340 337 335 328 313 307 301 300 305 305 299 295 294 293
244 249 255 263 270 277 285 293 299 305 312 318 320 318 315 318 324 324 324 322 320 320 320 325 328 331 330 330 330 333 336 335 336 336 332 330 333 318 306 300 297 298 298 296 293 294 291
252 256 260 265 271 276 281 287 293 298 303 307 312 312 313 316 317 318 324 324 329 325 324 324 325 326 327 328 328 329 332 333 334 333 331 328 333 326 319 312 301 294 291 289 284 279 285
257 259 263 267 270 273 278 282 288 293 297 303 309 310 314 317 319 311 319 320 323 325 324 324 324 325 328 327 328 331 330 330 332 330 332 329 332 328 322 312 305 301 297 293 289 273 274
258 260 263 266 270 274 279 284 289 294 297 302 305 309 314 320 312 316 313 316 319 318 320 319 323 324 327 330 328 329 332 333 331 330 329 329 330 323 327 322 313 310 304 297 291 286 275
260 263 266 270 272 275 279 284 289 293 296 299 303 308 310 314 314 311 308 310 314 315 319 319 322 322 325 330 328 329 330 329 329 328 326 326 330 323 328 327 321 321 312 304 297 297 295
262 265 268 269 272 275 280 284 287 290 295 298 302 306 307 309 310 307 304 308 312 314 317 320 322 321 323 323 326 326 325 325 327 327 326 328 329 322 326 326 322 320 317 308 303 301 294
262 264 269 272 274 276 278 281 284 287 291 295 298 301 303 308 306 301 301 309 310 310 317 320 320 322 324 322 324 327 325 323 324 327 325 327 324 322 325 323 322 321 315 309 306 305 302
262 264 267 271 274 278 281 283 286 288 291 294 297 298 298 304 296 295 298 306 306 310 312 311 316 321 323 325 328 326 324 323 321 323 322 322 321 320 324 319 320 318 318 310 306 305 305
262 263 265 269 272 276 279 283 285 288 290 292 290 293 298 302 291 291 296 300 304 307 309 309 314 317 322 324 323 320 320 320 320 321 323 321 320 318 322 320 319 322 323 315 310 308 307
260 262 265 269 271 273 277 281 285 289 287 286 286 289 294 298 286 288 292 295 300 303 305 310 312 315 320 319 317 316 315 315 316 316 318 319 319 318 315 318 319 315 316 312 308 312 306
261 263 265 268 271 274 278 283 282 283 283 284 282 283 287 292 288 286 289 296 298 299 304 309 309 312 313 312 312 312 311 315 319 317 317 318 318 317 314 312 312 313 310 308 306 308 302
261 262 267 272 272 276 280 280 277 278 275 278 276 277 281 289 285 283 289 293 293 297 301 305 306 307 305 306 305 308 310 314 315 313 314 315 315 315 310 306 307 306 303 301 302 302 301
260 264 268 272 274 276 275 277 272 270 271 274 273 276 280 283 283 284 286 290 297 299 299 304 305 305 300 304 299 304 308 305 311 305 306 307 311 312 310 307 309 307 303 299 296 297 298
261 263 265 269 272 269 270 269 269 268 266 267 273 274 274 277 285 283 286 288 294 296 298 300 302 300 300 303 298 299 310 303 309 303 301 303 307 308 308 302 303 301 296 295 296 296 295
Height
5879 5879 5878 5877 5876 5874 5872 5870 5869 5867 5865 5863 5861 5858 5856 5854 5852 5849 5847 5845 5843 5841 5838 5836 5833 5830 5828 5826 5823 5818 5814 5810 5807 5802 5797 5792 5787 5781 5776 5772 5769 5768 5763 5760 5759 5757 5753
5881 5881 5880 5878 5877 5875 5874 5871 5869 5868 5866 5864 5862 5860 5857 5855 5853 5851 5849 5847 5844 5842 5840 5837 5834 5832 5829 5827 5822 5818 5814 5810 5806 5802 5797 5792 5786 5781 5776 5772 5768 5765 5761 5759 5756 5751 5747
5882 5882 5881 5880 5878 5877 5874 5872 5870 5869 5867 5865 5862 5860 5858 5856 5854 5852 5850 5848 5845 5842 5840 5837 5834 5832 5829 5827 5821 5817 5813 5810 5806 5802 5797 5792 5787 5781 5777 5771 5767 5764 5759 5755 5750 5746 5744
5883 5883 5882 5881 5879 5877 5876 5874 5871 5869 5866 5864 5862 5860 5858 5856 5854 5852 5850 5848 5845 5842 5839 5836 5833 5830 5828 5824 5821 5817 5812 5808 5804 5801 5796 5791 5786 5781 5776 5771 5766 5762 5758 5752 5747 5744 5739
5884 5883 5882 5881 5880 5879 5876 5873 5871 5869 5867 5864 5862 5860 5858 5855 5853 5850 5849 5847 5844 5841 5838 5835 5832 5829 5826 5822 5819 5816 5812 5808 5804 5800 5795 5790 5785 5780 5775 5769 5765 5760 5757 5750 5744 5742 5737
5884 5883 5883 5882 5881 5879 5876 5873 5872 5870 5868 5865 5862 5860 5857 5855 5852 5850 5847 5844 5842 5840 5837 5834 5830 5828 5823 5821 5818 5815 5813 5809 5804 5799 5794 5790 5784 5780 5774 5769 5764 5759 5755 5749 5743 5742 5737
5883 5883 5882 5882 5881 5879 5876 5874 5872 5870 5867 5865 5863 5860 5858 5855 5853 5850 5847 5844 5841 5838 5834 5831 5828 5825 5822 5820 5817 5815 5811 5807 5802 5798 5794 5789 5784 5779 5774 5769 5763 5759 5755 5748 5744 5740 5737
5882 5882 5882 5881 5880 5879 5876 5874 5872 5870 5867 5864 5862 5860 5857 5855 5853 5851 5848 5843 5841 5838 5833 5829 5826 5823 5820 5817 5814 5811 5808 5805 5801 5797 5792 5788 5782 5777 5773 5769 5763 5758 5753 5748 5743 5740 5736
5879 5880 5880 5880 5880 5878 5876 5874 5871 5869 5867 5865 5862 5860 5857 5854 5851 5849 5847 5844 5840 5836 5833 5830 5826 5822 5818 5815 5811 5807 5804 5800 5796 5793 5790 5785 5781 5777 5773 5768 5763 5758 5753 5748 5743 5738 5735
5877 5877 5878 5878 5878 5877 5875 5873 5871 5869 5867 5864 5862 5860 5857 5854 5853 5848 5846 5843 5840 5837 5833 5831 5825 5822 5819 5815 5811 5805 5800 5796 5793 5789 5785 5783 5779 5774 5770 5765 5761 5756 5751 5747 5742 5737 5732
5873 5874 5876 5876 5876 5876 5875 5873 5870 5868 5866 5864 5861 5859 5857 5854 5851 5848 5846 5842 5839 5836 5832 5830 5825 5821 5817 5814 5810 5804 5798 5794 5789 5785 5783 5779 5775 5771 5767 5764 5759 5756 5751 5746 5741 5737 5731
5870 5872 5873 5874 5874 5874 5873 5872 5870 5867 5864 5862 5860 5858 5856 5853 5850 5847 5844 5841 5837 5835 5829 5826 5822 5818 5814 5810 5807 5802 5796 5791 5787 5782 5777 5775 5771 5769 5765 5760 5757 5752 5749 5745 5740 5736 5731
5867 5869 5870 5871 5871 5872 5871 5870 5868 5866 5863 5860 5858 5856 5854 5851 5849 5846 5843 5839 5836 5831 5829 5825 5820 5816 5812 5808 5804 5799 5795 5789 5784 5779 5775 5770 5766 5763 5760 5756 5753 5749 5746 5742 5739 5734 5731
5864 5865 5866 5867 5867 5868 5868 5867 5865 5864 5862 5859 5855 5853 5851 5848 5846 5843 5839 5837 5833 5829 5824 5821 5817 5814 5809 5804 5801 5796 5791 5786 5781 5776 5772 5769 5763 5759 5755 5752 5749 5746 5743 5740 5735 5733 5729
5860 5861 5862 5862 5863 5864 5864 5863 5862 5861 5859 5857 5854 5850 5847 5845 5843 5839 5836 5832 5829 5825 5822 5818 5814 5810 5805 5799 5795 5790 5786 5782 5777 5772 5768 5762 5761 5753 5750 5747 5745 5741 5738 5735 5731 5728 5725
5855 5856 5857 5858 5858 5859 5859 5858 5857 5856 5855 5854 5851 5848 5845 5841 5840 5836 5833 5828 5822 5820 5817 5813 5808 5805 5799 5794 5790 5785 5780 5777 5772 5767 5761 5757 5756 5750 5744 5741 5737 5735 5732 5728 5726 5723 5721
5850 5851 5852 5852 5853 5853 5853 5853 5852 5851 5850 5849 5847 5845 5842 5838 5836 5832 5828 5823 5818 5814 5812 5809 5803 5799 5794 5789 5785 5781 5778 5773 5768 5763 5758 5752 5749 5746 5739 5735 5731 5728 5724 5721 5718 5716 5714
5843 5844 5845 5846 5846 5846 5846 5846 5845 5844 5844 5843 5841 5839 5837 5834 5831 5827 5824 5819 5816 5811 5807 5803 5799 5794 5790 5785 5781 5778 5774 5768 5763 5757 5753 5749 5745 5739 5735 5729 5724 5721 5717 5713 5709 5708 5706
5835 5836 5837 5838 5839 5839 5838 5839 5838 5837 5837 5836 5835 5833 5830 5827 5823 5821 5818 5814 5810 5805 5801 5797 5792 5788 5784 5780 5776 5772 5767 5764 5757 5752 5746 5741 5738 5731 5728 5725 5719 5715 5711 5706 5702 5700 5699
5827 5829 5830 5830 5831 5831 5830 5830 5830 5829 5829 5829 5828 5825 5824 5821 5818 5815 5811 5808 5804 5800 5795 5791 5787 5782 5778 5774 5770 5766 5760 5756 5751 5746 5741 5736 5733 5727 5723 5717 5711 5709 5704 5699 5695 5693 5691
5819 5820 5821 5822 5823 5823 5823 5823 5822 5821 5821 5821 5820 5818 5815 5813 5811 5808 5804 5800 5797 5794 5790 5785 5782 5777 5773 5769 5764 5759 5755 5750 5745 5740 5735 5729 5727 5719 5717 5711 5705 5701 5698 5693 5689 5687 5679
5809 5811 5812 5814 5815 5815 5815 5815 5814 5813 5812 5813 5811 5810 5809 5805 5803 5801 5797 5794 5790 5787 5784 5780 5776 5771 5767 5763 5758 5752 5747 5743 5739 5734 5728 5724 5719 5713 5712 5704 5698 5695 5691 5685 5682 5678 5674
5799 5800 5802 5803 5805 5805 5806 5806 5806 5805 5804 5802 5801 5801 5800 5797 5794 5792 5790 5786 5783 5779 5776 5772 5769 5765 5761 5756 5750 5745 5741 5735 5730 5726 5721 5717 5711 5705 5703 5697 5692 5688 5684 5679 5675 5670 5666
5788 5790 5791 5792 5793 5795 5795 5796 5797 5796 5795 5794 5793 5793 5791 5790 5785 5783 5780 5777 5773 5770 5767 5764 5760 5756 5753 5747 5743 5738 5733 5727 5722 5717 5713 5709 5703 5697 5694 5689 5684 5680 5675 5670 5666 5663 5658
5776 5778 5779 5780 5782 5783 5783 5784 5785 5785 5785 5784 5782 5782 5781 5780 5777 5774 5771 5769 5765 5761 5758 5756 5751 5747 5743 5739 5734 5730 5725 5721 5717 5712 5706 5700 5695 5689 5685 5681 5677 5675 5669 5666 5661 5659 5652
5764 5766 5768 5769 5769 5771 5771 5771 5772 5771 5772 5773 5770 5769 5769 5770 5772 5766 5762 5760 5756 5753 5751 5747 5742 5738 5734 5729 5723 5719 5714 5711 5707 5704 5699 5693 5687 5682 5676 5671 5667 5666 5661 5656 5652 5650 5646
5751 5753 5754 5756 5757 5758 5758 5758 5759 5758 5757 5759 5759 5756 5756 5757 5758 5755 5753 5750 5746 5744 5741 5738 5734 5729 5724 5719 5714 5710 5706 5702 5697 5694 5690 5684 5678 5672 5666 5661 5659 5656 5651 5646 5643 5641 5634
5734 5737 5739 5741 5742 5744 5744 5745 5745 5744 5743 5744 5745 5743 5743 5744 5744 5742 5740 5738 5736 5733 5728 5727 5723 5719 5713 5709 5704 5699 5696 5692 5688 5684 5679 5674 5668 5664 5658 5651 5648 5645 5640 5636 5632 5627 5623
5719 5722 5724 5726 5727 5729 5730 5731 5731 5730 5730 5730 5733 5731 5728 5730 5732 5730 5728 5728 5727 5722 5718 5715 5712 5706 5701 5697 5692 5687 5684 5682 5678 5674 5669 5663 5660 5653 5649 5642 5637 5632 5627 5623 5619 5615 5610